Hourly Data Report for October 01, 2016

All times are specified in Local Standard Time (LST). Add 1 hour to adjust for Daylight Saving Time where and when it is observed.

TORONTO INTL A
ONTARIO

43°40'36.000" N
79°37'50.000" W
173.40 m
6158731
71624
YYZ

Download Data

Hourly Data (October 2016)
Hourly Data Report for October 1, 2016
Temp Definition
°C
Dew Point Temp Definition
°C
Rel Hum Definition
%
Wind Dir Definition
10's deg

Wind Spd Definition
km/h
Visibility Definition
km
Stn Press Definition
kPa
Hmdx Definition


Wind Chill Definition


Weather Definition


TIME
00:00 Legend Double Dagger 13.5 11.6 88 9 21 24.1 100.25     Drizzle
01:00 Legend Double Dagger 13.6 11.0 84 11 20 24.1 100.26     Drizzle
02:00 Legend Double Dagger 13.5 11.2 86 9 13 24.1 100.19     LegendNANA
03:00 Legend Double Dagger 13.1 11.0 87 8 14 24.1 100.13     LegendNANA
04:00 Legend Double Dagger 13.2 11.3 88 8 16 24.1 100.09     Mostly Cloudy
05:00 Legend Double Dagger 12.9 11.5 91 9 13 24.1 100.12     LegendNANA
06:00 Legend Double Dagger 13.1 11.7 91 9 7 24.1 100.13     LegendNANA
07:00 Legend Double Dagger 13.4 11.6 89 10 14 24.1 100.13     Cloudy
08:00 Legend Double Dagger 13.3 11.7 90 10 11 14.5 100.10     Rain
09:00 Legend Double Dagger 13.1 12.2 94 11 17 9.7 100.08     Rain
10:00 Legend Double Dagger 13.3 12.5 95 11 16 16.1 100.08     Cloudy
11:00 Legend Double Dagger 13.4 12.8 96 10 16 8.1 100.01     Drizzle
12:00 Legend Double Dagger 13.8 13.0 95 10 18 16.1 99.95     LegendNANA
13:00 Legend Double Dagger 14.0 13.2 95 9 15 14.5 99.88     Cloudy
14:00 Legend Double Dagger 14.5 13.6 94 8 16 9.7 99.84     Drizzle
15:00 Legend Double Dagger 14.5 13.7 95 9 14 11.3 99.81     Drizzle
16:00 Legend Double Dagger 14.4 13.6 95 7 12 16.1 99.79     Drizzle
17:00 Legend Double Dagger 14.7 13.8 94 9 13 19.3 99.78     LegendNANA
18:00 Legend Double Dagger 15.2 14.3 94 10 11 14.5 99.74     LegendNANA
19:00 Legend Double Dagger 15.6 14.3 92 11 20 19.3 99.71     Cloudy
20:00 Legend Double Dagger 15.9 14.1 89 11 21 24.1 99.73     LegendNANA
21:00 Legend Double Dagger 15.7 14.3 91 10 16 24.1 99.70     LegendNANA
22:00 Legend Double Dagger 15.4 14.5 94 11 17 19.3 99.66     Cloudy
23:00 Legend Double Dagger 15.3 14.5 95 9 14 14.5 99.62     LegendNANA

Notes on Data Quality.

Legend

  • E = Estimated
  • M = Missing
  • NA = Not Available
  • ‡ = Partner data that is not subject to review by the National Climate Archives
Date modified: